Location: ???????
(55.6769°N, 38.6127°E)
Time: 22:19:07
(UTC+00:00)

Daily predictions for brighter satellites

Satellite Brightness Start Highest point End
(mag) Time Altitude Azimuth Time Altitude Azimuth Time Altitude Azimuth
STARLINK-1114 3.7 18:36:31 10° WSW 18:40:36 60° S 18:44:42 10° E
Cosmos 2056 Rocket 3.6 18:35:50 10° S 18:40:51 59° ESE 18:45:54 10° NNE
STARLINK-1100 3.9 18:39:03 10° W 18:43:05 51° SSW 18:47:07 10° ESE
ATLAS CENTAUR R/B 0.0 18:41:36 10° WSW 18:43:48 69° SSE 18:45:36 10° ENE
STARLINK-1130 (DARKSAT) 3.7 18:41:28 10° WSW 18:45:34 61° S 18:49:40 10° E
Cosmos 389 Rocket 3.6 18:42:29 10° SW 18:45:50 45° WNW 18:49:15 10° N
Okean 1 4.2 18:42:23 10° SSW 18:46:22 53° WNW 18:50:22 10° N
Meteor 1-19 Rocket 4.4 18:41:44 10° SSW 18:47:23 87° WNW 18:53:14 10° NNE
SL-4 R/B 1.3 18:44:19 10° NW 18:47:38 87° SW 18:50:44 10° SE
STARLINK-1083 3.9 18:44:02 10° W 18:48:03 49° SSW 18:52:04 10° ESE
STARLINK-1084 3.7 18:46:26 10° WSW 18:50:32 61° S 18:54:37 10° E
ISS -2.9 18:48:55 10° W 18:52:02 35° SSW 18:55:08 10° SE
Cosmos 2278 Rocket 2.6 18:47:01 10° S 18:52:22 45° ESE 18:57:45 10° NE
STARLINK-1125 4.0 18:49:00 10° W 18:53:00 48° SSW 18:57:00 10° ESE
Meteor 1-12 Rocket 4.4 18:48:06 10° NNW 18:53:47 80° WSW 18:59:26 10° S
SL-8 R/B 4.4 18:49:46 10° SW 18:54:03 33° S 18:58:22 10° ESE
NOSS 2-3 (E) 4.0 18:50:39 10° SSW 18:54:57 51° SE 19:00:11 10° NE
STARLINK-1098 3.7 18:51:25 10° W 18:55:31 61° S 18:59:37 10° E
CARTOSAT-1 3.7 18:51:50 10° SSE 18:56:10 79° WSW 19:00:31 10° NNW
STARLINK-1109 4.0 18:53:58 10° W 18:57:57 47° SSW 19:01:56 10° ESE
STARLINK-1123 3.7 18:56:23 10° W 19:00:28 61° S 19:04:35 10° ESE
Lacrosse 5 2.2 18:55:37 10° WNW 19:00:34 55° SSW 19:05:30 10° SE
STARLINK-1091 4.1 18:58:56 10° W 19:02:55 45° SSW 19:06:53 10° SE
Cosmos 1844 Rocket 3.6 18:57:37 10° SW 19:03:11 56° NW 19:08:46 10° NNE
STARLINK-67 2.3 19:01:25 10° WSW 19:03:16 35° S 19:05:07 10° ESE
Terra 1.9 18:59:57 10° SSE 19:04:43 87° ENE 19:09:31 10° NNW
Cosmos 1437 Rocket 3.4 19:01:50 10° SSE 19:05:20 37° E 19:08:53 10° NNE
STARLINK-1097 3.7 19:01:21 10° W 19:05:27 61° S 19:09:33 10° ESE
STARLINK-1072 4.1 19:03:56 10° W 19:07:53 44° SSW 19:11:50 10° SE
STARLINK-1099 3.7 19:06:17 10° W 19:10:23 60° S 19:14:29 10° ESE
STARLINK-1208 4.5 19:06:59 10° SSW 19:10:34 29° SSE 19:14:09 10° E
Cosmos 1452 Rocket 4.0 19:06:56 10° S 19:11:54 44° ESE 19:16:55 10° NE
Cosmos 1300 Rocket 4.1 19:07:55 10° NNW 19:12:18 58° W 19:16:40 10° S
STARLINK-1096 4.1 19:08:56 10° W 19:12:52 42° SSW 19:16:47 10° SE
STARLINK-1228 3.5 19:10:42 10° SW 19:13:50 39° SSE 19:16:59 10° E
NOSS 2-3 (D) 3.8 19:10:26 10° SW 19:14:49 64° SE 19:20:14 10° NE
STARLINK-1104 3.7 19:11:16 10° W 19:15:22 60° S 19:19:28 10° ESE
STARLINK-1271 4.4 19:11:54 10° SSW 19:15:31 30° SSE 19:19:10 10° E
Cosmos 2084 Rocket 3.6 19:12:29 10° WSW 19:16:49 79° NW 19:21:15 10° NE
Okean 3 3.7 19:13:26 10° SSW 19:17:44 74° WNW 19:22:05 10° N
STARLINK-1079 4.2 19:13:52 10° W 19:17:47 41° SSW 19:21:33 11° SE
STARLINK-1234 3.4 19:15:16 10° SW 19:18:11 38° SSE 19:21:08 10° E
USA 215 3.3 19:12:03 10° SE 19:18:35 68° SSW 19:25:07 10° WNW
Cosmos 1420 Rocket 4.0 19:13:31 10° SSW 19:18:39 64° ESE 19:23:48 10° NNE
STARLINK-1212 3.5 19:16:45 10° SW 19:19:36 34° SSE 19:22:27 10° E
STARLINK-1209 3.3 19:16:49 10° SW 19:19:47 39° SSE 19:22:46 10° E
STARLINK-1105 3.5 19:17:12 10° SW 19:20:04 34° SSE 19:22:55 10° E
STARLINK-1144 3.7 19:16:15 10° W 19:20:21 59° S 19:24:26 10° ESE
STARLINK-1154 4.3 19:16:48 10° SW 19:20:28 31° SSE 19:24:10 10° E
NOSS 3-2 (C) 4.4 19:13:41 10° NW 19:20:34 61° NNE 19:28:32 10° ESE
STARLINK-1247 3.5 19:18:06 10° SW 19:20:58 34° SSE 19:23:51 10° E
STARLINK-1227 3.5 19:18:34 10° SW 19:21:25 34° SSE 19:24:17 10° E
Meteor 1-13 Rocket 4.2 19:16:02 10° S 19:21:37 80° ESE 19:27:22 10° NNE
STARLINK-1226 3.5 19:19:25 10° SW 19:22:17 34° SSE 19:25:10 10° E
STARLINK-1116 4.2 19:18:52 10° W 19:22:45 39° SSW 19:26:21 12° SE
STARLINK-1215 3.5 19:20:20 10° SW 19:23:13 35° SSE 19:26:07 10° E
Crew Dragon 1.8 19:21:48 10° WSW 19:23:23 18° SSW 19:24:08 16° S
Cosmos 2221 Rocket 3.9 19:19:12 10° SSW 19:23:42 71° WNW 19:28:17 10° N
Cosmos 1766 3.9 19:20:30 10° N 19:24:20 45° ENE 19:27:42 13° SE
STARLINK-1217 3.4 19:22:06 10° SW 19:24:59 35° SSE 19:27:53 10° E
STARLINK-1103 3.7 19:21:13 10° W 19:25:18 59° S 19:29:24 10° ESE
STARLINK-1197 4.3 19:21:42 10° SW 19:25:25 33° SSE 19:29:09 10° E
Meteor 2-4 Rocket 3.9 19:20:08 10° SSW 19:25:30 71° WNW 19:30:53 10° NNE
STARLINK-1229 3.4 19:23:00 10° SW 19:25:54 36° SSE 19:28:48 10° E
USA 229 DEB 3.8 19:19:14 10° SW 19:25:54 82° NW 19:33:01 10° NE
USA 229 3.8 19:19:21 10° SW 19:26:01 82° NW 19:33:07 10° NE
STARLINK-1270 3.4 19:23:52 10° SW 19:26:46 36° SSE 19:29:40 10° E
MTI 3.9 19:24:01 10° NNE 19:27:08 53° ESE 19:29:55 12° S
Cosmos 371 Rocket 3.5 19:22:28 10° S 19:27:11 54° ESE 19:31:57 10° NE
STARLINK-1189 3.4 19:25:42 10° SW 19:28:35 36° SSE 19:31:30 10° E
SL-27 R/B 4.4 19:25:48 10° N 19:28:50 24° NE 19:31:50 10° ESE
STARLINK-1188 3.4 19:26:33 10° SW 19:29:28 37° SSE 19:32:23 10° E
Resurs 01 Rocket 4.3 19:27:32 10° WSW 19:29:35 13° W 19:31:39 10° WNW
STARLINK-1235 3.2 19:27:11 10° WSW 19:30:06 40° SSE 19:33:03 10° E
STARLINK-1101 3.7 19:26:11 10° W 19:30:17 58° S 19:34:21 10° ESE
STARLINK-1198 4.2 19:26:35 10° SW 19:30:20 34° SSE 19:34:07 10° E
STARLINK-1187 3.3 19:27:38 10° SW 19:30:33 38° SSE 19:33:27 10° E
STARLINK-1191 3.3 19:29:01 10° SW 19:31:55 37° SSE 19:34:50 10° E
Cosmos 1674 Rocket 3.6 19:27:57 10° S 19:32:17 72° E 19:36:41 10° NNE
STARLINK-1094 4.3 19:28:51 10° W 19:32:40 36° SSW 19:35:55 13° SE
STARLINK-1221 3.3 19:29:54 10° SW 19:32:48 37° SSE 19:35:43 10° E
SL-4 R/B 3.0 19:32:07 10° ESE 19:33:32 15° ENE 19:34:56 10° NNE
STARLINK-1222 3.3 19:30:46 10° SW 19:33:40 38° SSE 19:36:35 10° E
NOSS 3-1 (C) 3.8 19:28:06 10° WSW 19:33:56 74° NNW 19:40:55 10° NE
STARLINK-1214 3.3 19:31:41 10° SW 19:34:36 38° SSE 19:37:31 10° E
NOSS 3-1 (A) 3.5 19:29:03 10° SW 19:34:50 89° SE 19:41:45 10° NE
OPS 8737 4.1 19:31:56 10° SW 19:35:10 85° NW 19:38:02 10° NE
STARLINK-1102 3.7 19:31:10 10° W 19:35:15 57° S 19:39:20 10° ESE
Nadezhda 4 Rocket 4.1 19:29:15 10° S 19:35:19 65° E 19:41:23 10° NNE
STARLINK-1199 4.2 19:31:32 10° SW 19:35:19 36° SSE 19:39:08 10° E
ATLAS 3B R/B 3.7 19:30:36 10° WNW 19:37:02 47° NNE 19:43:39 10° E
Abrixas rocket 3.3 19:34:53 10° SW 19:37:09 20° S 19:38:16 16° SSE
deb Kosmos-1763 4.0 19:33:41 10° NNW 19:37:19 90° E 19:40:13 15° SSE
STARLINK-1117 4.4 19:33:50 10° W 19:37:37 35° SSW 19:40:42 14° SE
SPOT 5 4.0 19:33:53 10° S 19:38:47 44° W 19:43:53 10° NNW
Meteor 1-4 Rocket 4.4 19:36:25 10° SW 19:39:29 29° WNW 19:42:34 10° N
Cosmos 1741 Rocket 4.4 19:34:24 10° NNW 19:39:33 58° WSW 19:44:11 13° S
Cosmos 1378 Rocket 3.6 19:35:33 11° S 19:39:48 67° E 19:44:11 10° NNE
STARLINK-1111 3.7 19:36:08 10° W 19:40:13 56° S 19:44:17 10° ESE
STARLINK-1210 4.1 19:36:26 10° SW 19:40:15 37° SSE 19:44:06 10° E
CENTAUR R/B 3.5 19:33:40 10° NW 19:41:08 66° NNE 19:49:38 10° ESE
STARLINK-1078 4.5 19:38:49 10° W 19:42:33 33° SSW 19:45:28 15° SSE
Cosmos 1733 3.5 19:40:44 10° N 19:44:31 55° ENE 19:47:29 15° SSE
STARLINK-1073 3.7 19:41:07 10° W 19:45:11 55° S 19:49:15 10° ESE
STARLINK-1219 4.1 19:41:21 10° SW 19:45:13 39° SSE 19:49:05 10° E
NOSS 2-3 (C) 3.9 19:41:05 10° SW 19:45:37 87° NW 19:51:20 10° NE
Cosmos 2297 4.3 19:43:34 12° S 19:48:22 38° ESE 19:53:38 10° NE
Cosmos 1975 Rocket 4.0 19:46:39 15° SSE 19:49:53 35° E 19:53:56 10° NNE
STARLINK-1121 3.7 19:46:05 10° W 19:50:08 54° S 19:54:11 10° ESE
STARLINK-1211 4.0 19:46:16 10° SW 19:50:09 40° SSE 19:54:03 10° E
BREEZE M DEB (TANK) 3.9 19:50:01 10° SSW 19:51:51 16° S 19:51:51 16° S
STARLINK-1106 3.8 19:51:03 10° W 19:55:06 53° SSW 19:59:08 10° ESE
STARLINK-1245 4.0 19:51:13 10° SW 19:55:08 42° SSE 19:59:03 10° E
Cosmos 2082 Rocket 3.2 19:52:24 10° NW 19:57:39 38° WSW 20:02:27 12° S
STARLINK-1112 3.8 19:56:02 10° W 20:00:05 51° SSW 20:04:06 10° ESE
STARLINK-1233 3.9 19:56:08 10° SW 20:00:05 43° SSE 20:04:01 10° E
SeaSat 1 2.6 19:58:56 10° NE 20:03:49 55° ESE 20:08:33 11° SSW
ERBS 2.9 20:01:11 10° SSW 20:04:13 33° SE 20:07:16 10° E
STARLINK-1128 3.8 20:01:01 10° W 20:05:02 50° SSW 20:09:04 10° ESE
STARLINK-1204 3.9 20:01:05 10° SW 20:05:03 45° SSE 20:09:01 10° E
Cosmos 1242 Rocket 4.3 20:03:35 14° SE 20:05:36 21° E 20:08:25 10° NE
Okean 1 Rocket 3.9 20:01:27 10° NNW 20:05:45 46° W 20:09:39 12° SSW
Cosmos 1833 Rocket 4.4 20:01:53 10° NW 20:06:08 23° WSW 20:10:22 10° SSW
NOSS 3-2 (A) 4.0 19:59:52 10° NW 20:07:04 85° SW 20:15:18 10° SE
Cosmos 1470 3.5 20:03:20 10° N 20:07:05 42° ENE 20:09:56 16° SE
Cosmos 1110 Rocket 4.3 20:03:17 14° S 20:07:36 50° ESE 20:12:36 10° NE
STARLINK-1238 3.8 20:06:00 10° SW 20:09:58 46° SSE 20:13:57 10° E
STARLINK-1113 3.8 20:05:59 10° W 20:09:59 49° SSW 20:14:00 10° ESE
Cosmos 1092 Rocket 4.0 20:07:42 13° S 20:13:11 76° E 20:19:21 10° NNE
Cosmos 968 Rocket 4.0 20:08:09 10° NNW 20:13:16 53° NE 20:18:02 11° SE
USA 238 DEB 3.8 20:07:14 10° NW 20:14:22 81° SW 20:21:34 11° SE
USA 238 3.8 20:07:19 10° NW 20:14:27 81° SW 20:21:42 11° SE
STARLINK-1201 3.8 20:10:58 10° WSW 20:14:57 48° SSE 20:18:57 10° E
STARLINK-1119 3.9 20:10:58 10° W 20:14:57 47° SSW 20:18:48 11° ESE
Cosmos 1805 3.8 20:11:21 10° NNW 20:15:11 52° W 20:18:10 16° S
EO 1 Del DPAF 3.3 20:12:05 10° NNE 20:15:51 65° ESE 20:18:37 18° S
Cosmos 304 Rocket 3.8 20:11:44 12° SSW 20:16:10 69° ESE 20:20:57 10° NNE
SWAS 4.5 20:13:09 10° NW 20:17:30 82° NE 20:20:57 16° SE
Cosmos 2369 Rocket 3.5 20:15:28 15° SSE 20:18:47 25° ESE 20:23:17 10° NE
Cosmos 1455 Rocket 3.0 20:14:26 10° NNW 20:18:50 85° E 20:22:00 18° SSE
Cosmos 332 Rocket 3.9 20:14:57 10° SSW 20:19:53 82° WNW 20:24:50 10° NNE
STARLINK-1206 3.8 20:15:54 10° WSW 20:19:54 49° SSE 20:23:56 10° E
STARLINK-1114 3.9 20:15:57 10° W 20:19:56 46° SSW 20:23:35 12° SE
SL-4 R/B 3.8 20:19:03 10° W 20:20:08 11° WSW 20:21:12 10° SW
Okean 2 3.4 20:17:46 17° S 20:20:49 69° E 20:24:58 10° NNE
Aureole 2 Rocket 2.2 20:19:10 19° S 20:21:15 59° ESE 20:24:17 10° NE
Cosmos 1486 Rocket 4.2 20:16:23 10° NNW 20:21:44 73° ENE 20:26:12 15° SE
Cosmos 1066 Rocket 4.4 20:16:45 10° SSW 20:22:10 69° WNW 20:27:32 10° N
OPS 6432 4.4 20:19:44 10° WNW 20:22:42 56° SW 20:24:56 20° SSE
Helios 1A 3.8 20:20:44 14° SE 20:24:04 44° ENE 20:28:03 10° N
STARLINK-1130 (DARKSAT) 4.0 20:20:54 10° W 20:24:52 44° SSW 20:28:20 13° SE
STARLINK-1205 3.7 20:20:51 10° WSW 20:24:52 50° SSE 20:28:54 10° E
STARLINK-1237 4.5 20:24:10 11° SSW 20:27:33 28° SSE 20:31:08 10° E
ISS -1.8 20:26:09 10° WSW 20:28:11 15° SSW 20:28:26 15° SSW
Cosmos 1943 Rocket 2.9 20:26:07 17° SSE 20:29:47 37° ESE 20:34:53 10° NE
STARLINK-1218 3.7 20:25:48 10° WSW 20:29:49 52° SSE 20:33:52 10° E
STARLINK-1084 4.0 20:25:53 10° W 20:29:49 43° SSW 20:33:07 14° SE
Cosmos 1378 3.4 20:27:53 14° SSW 20:30:59 64° WNW 20:34:42 10° N
Cosmos 1331 Rocket 4.0 20:26:59 14° SSW 20:31:23 68° ESE 20:36:33 10° NNE
STARLINK-1202 4.4 20:28:56 10° SSW 20:32:30 29° SSE 20:36:09 10° E
Cosmos 1842 3.3 20:30:09 19° S 20:32:49 69° E 20:36:43 10° NNE
Cosmos 1025 Rocket 4.0 20:31:50 17° SSE 20:34:31 34° E 20:38:24 10° NNE
STARLINK-1254 3.7 20:30:45 10° WSW 20:34:48 53° SSE 20:38:51 10° E
STARLINK-1098 4.0 20:30:53 10° W 20:34:48 41° SSW 20:37:55 15° SE
STARLINK-67 4.0 20:33:20 10° WSW 20:33:56 15° WSW 20:33:56 15° WSW
SL-8 R/B 4.4 20:31:39 10° WSW 20:35:55 32° S 20:40:04 11° SE
Cosmos 2278 Rocket 3.2 20:30:57 10° WSW 20:36:28 50° NW 20:42:01 10° NNE
S3M 4.1 20:32:06 10° N 20:38:15 68° ENE 20:43:13 16° SSE
STARLINK-1123 4.1 20:35:51 10° W 20:39:45 40° SSW 20:42:41 16° SE
STARLINK-1231 3.7 20:35:44 10° WSW 20:39:47 54° S 20:43:50 10° E
STARLINK-1246 4.3 20:38:41 10° SW 20:42:23 32° SSE 20:46:07 10° E
Thor Agena Rocket 3.7 20:37:19 10° NNE 20:42:39 79° WNW 20:47:30 12° SSW
Lacrosse 5 3.6 20:39:23 10° W 20:42:41 18° SW 20:44:51 14° SSW
Terra 4.0 20:39:58 10° SW 20:43:08 17° W 20:46:18 10° NW
STARLINK-1097 4.1 20:40:50 10° W 20:44:42 38° SSW 20:47:28 17° SE
STARLINK-1232 3.6 20:40:41 10° WSW 20:44:45 55° S 20:48:49 10° E
ALOS 2 2.6 20:41:59 19° S 20:45:04 80° WSW 20:49:30 10° NNW
NOSS 8 (F) 4.0 20:44:13 13° SW 20:46:55 70° SE 20:50:04 10° NE
STARLINK-1224 4.2 20:43:35 10° SW 20:47:20 34° SSE 20:51:06 10° E
Cosmos 1536 Rocket 4.3 20:46:41 19° SSE 20:49:25 41° E 20:53:31 10° NNE
STARLINK-1099 4.2 20:45:48 10° W 20:49:37 37° SSW 20:52:14 18° SE
STARLINK-1208 3.6 20:45:38 10° WSW 20:49:41 56° S 20:53:46 10° E
STARLINK-1228 3.1 20:46:55 10° W 20:50:10 53° S 20:53:26 10° ESE
GEOS 3 Rocket 3.9 20:46:58 10° ESE 20:52:11 74° NE 20:57:31 10° NW
STARLINK-1225 4.2 20:48:31 10° SW 20:52:18 35° SSE 20:56:06 10° E
STARLINK-1234 3.0 20:50:41 10° W 20:53:45 51° S 20:56:48 10° ESE
Cosmos 1544 Rocket 3.8 20:50:17 10° NNW 20:54:35 62° W 20:57:29 20° S
STARLINK-1104 4.2 20:50:48 10° W 20:54:36 35° SSW 20:57:01 19° SSE
STARLINK-1271 3.6 20:50:36 10° WSW 20:54:41 57° S 20:58:45 10° E
STARLINK-1212 2.9 20:52:05 10° WSW 20:55:07 52° S 20:58:09 10° ESE
STARLINK-1209 3.0 20:52:26 10° W 20:55:30 51° S 20:58:35 10° ESE
STARLINK-1105 2.9 20:52:34 10° WSW 20:55:35 51° S 20:58:38 10° ESE
Cosmos 1553 Rocket 4.1 20:49:38 10° NNW 20:56:01 76° W 21:00:53 18° S
STARLINK-1247 2.9 20:53:27 10° WSW 20:56:31 52° S 20:59:34 10° ESE
STARLINK-1227 2.9 20:53:56 10° WSW 20:56:58 51° S 20:59:59 10° ESE
STARLINK-1230 4.1 20:53:25 10° SW 20:57:14 37° SSE 21:01:04 10° E
SJ 16-02 4.3 20:55:37 10° N 20:57:44 13° NNE 20:59:50 10° ENE
STARLINK-1226 2.9 20:54:46 10° WSW 20:57:49 52° S 21:00:52 10° ESE
Cosmos 2228 4.3 20:54:23 10° N 20:58:18 33° ENE 21:01:53 11° SE
STARLINK-1215 2.9 20:55:42 10° W 20:58:45 52° S 21:01:49 10° ESE
Cosmos 1726 2.4 20:55:50 10° N 20:59:31 59° ENE 21:01:55 20° SSE
STARLINK-1144 4.3 20:55:47 10° W 20:59:33 34° SSW 21:01:49 19° SSE
STARLINK-1154 3.6 20:55:34 10° WSW 20:59:39 58° S 21:03:44 10° E
STARLINK-1217 2.9 20:57:29 10° W 21:00:31 52° S 21:03:34 10° ESE
Cosmos 1833 4.2 20:55:16 10° NW 21:00:57 88° NE 21:05:52 14° SSE
STARLINK-1229 2.9 20:58:23 10° W 21:01:27 52° S 21:04:30 10° ESE
STARLINK-1243 4.1 20:58:20 10° SW 21:02:12 38° SSE 21:06:03 10° E
Aureole 3 Rocket 4.0 20:57:30 10° NNW 21:02:17 61° W 21:07:23 17° S
STARLINK-1270 2.9 20:59:15 10° W 21:02:18 51° S 21:05:22 10° ESE
USA 215 4.2 20:58:28 17° S 21:02:23 30° SW 21:08:03 10° WNW
SL-4 R/B 2.3 21:01:57 20° SW 21:02:32 22° W 21:04:23 10° NW
STARLINK-1189 2.9 21:01:05 10° W 21:04:09 51° S 21:07:12 10° ESE
SL-27 R/B 3.0 21:00:40 10° NW 21:04:10 46° WSW 21:06:05 23° S
STARLINK-1103 4.4 21:00:47 10° W 21:04:30 32° SSW 21:06:35 20° SSE
STARLINK-1197 3.6 21:00:32 10° WSW 21:04:37 59° S 21:08:42 10° E
STARLINK-1188 2.9 21:01:58 10° W 21:05:01 51° S 21:08:04 10° ESE
Cosmos 1953 2.3 21:01:24 10° N 21:05:27 78° ENE 21:08:04 21° SSE
STARLINK-1235 3.0 21:02:39 10° W 21:05:40 50° S 21:08:41 10° ESE
STARLINK-1187 2.9 21:03:05 10° W 21:06:06 50° S 21:09:07 10° ESE
Cosmos 2026 Rocket 4.3 21:01:21 13° SSW 21:06:56 67° WNW 21:13:17 10° N
Cosmos 1340 Rocket 3.0 21:03:08 10° N 21:07:09 65° ENE 21:09:57 19° SSE
STARLINK-1236 4.0 21:03:16 10° SW 21:07:09 40° SSE 21:11:03 10° E
STARLINK-1191 2.9 21:04:27 10° W 21:07:28 51° S 21:10:30 10° ESE
STARLINK-1221 2.9 21:05:19 10° W 21:08:21 51° S 21:11:23 10° ESE
STARLINK-1222 2.9 21:06:12 10° W 21:09:14 51° S 21:12:16 10° ESE
STARLINK-1101 4.4 21:05:46 10° W 21:09:26 31° SSW 21:11:21 21° SSE
STARLINK-1198 3.6 21:05:28 10° WSW 21:09:33 60° S 21:13:39 10° E
STARLINK-1214 2.9 21:07:07 10° W 21:10:09 51° S 21:13:10 10° ESE
Cosmos 1461 2.9 21:06:45 12° SW 21:10:42 80° SE 21:15:09 10° NE
NOSS 3-2 (C) 4.1 21:04:39 10° NW 21:11:51 65° SW 21:19:45 11° SSE
NOSS 2-2 (D) 3.4 21:09:53 19° SSW 21:12:20 55° SE 21:16:33 10° NE
Cosmos 1271 Rocket 2.7 21:11:25 22° S 21:13:46 74° ESE 21:17:41 10° NNE
Cosmos 1758 3.8 21:09:53 10° NNW 21:13:48 50° W 21:16:19 20° SSW
STARLINK-1102 4.5 21:10:46 10° W 21:14:24 30° SSW 21:16:09 21° SSE
STARLINK-1199 3.6 21:10:28 10° WSW 21:14:34 60° S 21:18:39 10° E
NOSS 8 (H) 4.0 21:13:44 16° SW 21:16:03 80° SE 21:19:17 10° NE
STARLINK-1269 3.9 21:13:07 10° SW 21:17:03 43° SSE 21:20:59 10° E
Meteor 1-16 Rocket 4.2 21:11:26 10° NNW 21:17:10 83° ENE 21:21:25 17° SSE
COSMOS 2487 2.9 21:14:14 10° NNW 21:17:41 56° ENE 21:20:20 16° SE
STARLINK-1210 3.6 21:15:25 10° WSW 21:19:30 60° S 21:23:36 10° E
Cosmos 2297 Rocket 4.0 21:15:19 10° NNW 21:20:21 31° NE 21:25:21 10° E
Cosmos 1606 Rocket 4.1 21:16:59 10° N 21:21:14 52° ENE 21:24:35 16° SSE
Cosmos 1707 2.7 21:18:47 22° S 21:21:14 84° E 21:25:10 10° NNE
Cosmos 2292 Rocket 3.8 21:18:43 20° SSE 21:21:29 51° E 21:24:55 10° NNE
STARLINK-1200 3.9 21:18:04 10° SW 21:22:01 44° SSE 21:25:59 10° E
YAOGAN 11 4.1 21:21:15 20° S 21:24:12 71° WSW 21:28:33 10° NNW
STARLINK-1219 3.6 21:20:23 10° WSW 21:24:28 61° S 21:28:34 10° E
ATLAS CENTAUR R/B 0.6 21:23:47 10° WNW 21:25:41 74° NNE 21:28:35 10° E
STARLINK-1192 3.9 21:23:01 10° SW 21:26:59 46° SSE 21:30:58 10° E
Cosmos 1975 Rocket 4.3 21:23:46 11° SW 21:27:46 36° WNW 21:31:53 10° N
Cosmos 1626 4.5 21:25:57 10° ESE 21:28:06 15° E 21:30:16 10° NE
ATLAS 3B R/B 2.7 21:21:36 10° NW 21:28:22 90° W 21:35:21 10° SE
Meteor 2-10 4.1 21:24:19 10° NNW 21:29:23 63° W 21:32:53 19° S
STARLINK-1211 3.6 21:25:20 10° W 21:29:25 61° S 21:33:31 10° E
Aureole 3 3.0 21:26:44 10° NNW 21:30:48 88° W 21:32:49 23° S
NOSS 2-2 (E) 3.3 21:27:53 12° SW 21:31:17 86° SE 21:35:51 10° NE
STARLINK-1244 3.8 21:27:56 10° WSW 21:31:55 47° SSE 21:35:55 10° E
CENTAUR R/B 3.3 21:24:26 10° NW 21:32:08 61° SW 21:40:35 10° SSE
Cosmos 2297 4.3 21:26:49 10° SW 21:32:25 56° NW 21:38:05 10° NNE
SL-16 R/B 3.9 21:28:46 10° ESE 21:34:18 36° NE 21:39:52 10° N
STARLINK-1245 3.6 21:30:19 10° W 21:34:25 61° S 21:38:31 10° E
PSLV R/B 4.5 21:30:49 10° NNE 21:35:15 42° E 21:38:18 18° SSE
Cosmos 1777 Rocket 4.4 21:30:42 10° NNW 21:35:54 62° ENE 21:41:06 10° SE
Cosmos 2266 Rocket 4.0 21:31:36 18° S 21:36:16 78° E 21:42:21 10° NNE
STARLINK-1138 3.8 21:32:53 10° WSW 21:36:54 48° SSE 21:40:54 10° E
SL-4 R/B 4.3 21:38:06 13° SE 21:38:46 13° SE 21:41:04 10° ESE
STARLINK-1203 3.8 21:35:01 10° WSW 21:39:05 50° SSE 21:43:10 10° E
STARLINK-1233 3.6 21:35:16 10° W 21:39:23 61° S 21:43:28 10° ESE
Cosmos 1242 Rocket 3.4 21:37:35 16° SW 21:40:13 44° WNW 21:43:47 10° N
ERBS 2.3 21:37:00 10° WSW 21:40:20 84° NNW 21:43:40 10° ENE
Cosmos 1503 Rocket 4.3 21:35:41 10° NW 21:40:49 54° WSW 21:44:32 19° S
SeaSat 1 3.7 21:36:39 10° NNE 21:41:15 40° NW 21:45:50 10° WSW
STARLINK-1143 3.8 21:37:50 10° WSW 21:41:51 50° SSE 21:45:53 10° E
Cosmos 1470 4.4 21:39:47 10° NW 21:42:57 24° W 21:45:16 14° SW
STARLINK-1204 3.6 21:40:15 10° W 21:44:21 61° S 21:48:27 10° ESE
Cosmos 1674 3.2 21:43:44 20° SSE 21:46:01 49° E 21:49:41 10° NNE
ATLAS CENTAUR R/B 3.3 21:44:37 13° SE 21:46:27 17° ESE 21:49:10 10° ENE
STARLINK-1241 3.7 21:42:47 10° WSW 21:46:49 51° SSE 21:50:51 10° E
STARLINK-1238 3.6 21:45:12 10° W 21:49:17 60° S 21:53:23 10° ESE
Cosmos 1867 3.7 21:45:14 10° NW 21:50:38 60° SW 21:55:32 12° SSE
STARLINK-1239 3.7 21:47:43 10° WSW 21:51:46 53° SSE 21:55:49 10° E
NOSS 2-2 (C) 3.4 21:50:29 11° SW 21:54:05 80° NW 21:58:36 10° NE
STARLINK-1201 3.6 21:50:11 10° W 21:54:17 60° S 21:58:22 10° ESE
ATLAS 2AS CENTAUR R/B 3.4 21:48:30 17° SSW 21:54:37 50° SE 22:02:09 10° NE
Cosmos 968 Rocket 4.4 21:50:17 10° NW 21:54:54 33° WSW 21:58:02 17° SSW
Meteor 2-19 Rocket 4.5 21:50:34 17° SSW 21:55:25 82° WNW 22:01:36 10° NNE
Cosmos 1354 Rocket 4.5 21:50:35 10° NW 21:55:38 47° WSW 21:59:15 18° S
Cosmos 2227 Rocket 3.6 21:50:51 10° NNW 21:56:13 40° NE 22:01:34 10° ESE
STARLINK-1240 3.7 21:52:41 10° WSW 21:56:45 54° SSE 22:00:48 10° E
STARLINK-1206 3.6 21:55:09 10° W 21:59:14 59° S 22:03:20 10° ESE
Helios 1A 4.3 21:57:21 16° SW 21:59:48 28° W 22:03:25 10° NW
STARLINK-1216 3.7 21:57:39 10° WSW 22:01:42 55° S 22:05:46 10° E
Meteor 1-24 Rocket 4.5 21:57:42 14° SSE 22:01:58 41° E 22:07:00 10° NNE
Cosmos 2369 Rocket 2.3 21:57:13 13° SW 22:02:16 81° NW 22:07:58 10° NNE
Cosmos 2315 Rocket 4.1 21:56:21 10° NNW 22:02:30 67° W 22:07:22 17° S
Cosmos 1908 3.3 21:58:43 10° NNW 22:02:31 63° W 22:04:55 21° S
CZ-2D R/B 4.0 21:58:37 10° NE 22:02:37 21° E 22:06:33 10° SE
Cosmos 1892 Rocket 4.2 22:00:32 16° SSE 22:03:44 47° E 22:07:59 10° NNE
STARLINK-1205 3.6 22:00:07 10° W 22:04:13 58° S 22:08:18 10° ESE
STARLINK-1237 3.7 22:02:36 10° WSW 22:06:41 56° S 22:10:45 10° E
STARLINK-1218 3.6 22:05:05 10° W 22:09:10 58° S 22:13:15 10° ESE
Cosmos 1726 Rocket 3.5 22:05:09 10° NNW 22:09:29 73° W 22:12:35 18° S
RESURS DK-1 4.3 22:07:31 11° SSE 22:10:05 18° ESE 22:12:56 10° ENE
STARLINK-1202 3.6 22:07:35 10° WSW 22:11:39 57° S 22:15:44 10° E
Cosmos 1025 Rocket 4.2 22:08:42 13° SW 22:12:07 35° WNW 22:16:05 10° N
Resurs 1-4 Rocket 3.7 22:08:37 10° NE 22:13:00 26° E 22:17:22 10° SSE
Cosmos 1943 Rocket 2.7 22:07:54 10° SW 22:13:22 57° NW 22:18:56 10° NNE
Helios 1B rocket 2.4 22:09:27 10° NNE 22:13:37 89° ESE 22:16:32 19° SSW
STARLINK-1254 3.6 22:10:04 10° W 22:14:08 57° S 22:18:13 10° ESE
Meteor 2-5 Rocket 3.9 22:10:21 16° S 22:14:42 64° E 22:20:15 10° NNE
STARLINK-1231 3.6 22:15:03 10° W 22:19:07 56° S 22:23:11 10° ESE
Cosmos 2098 Rocket 4.4 22:13:59 16° SSW 22:19:34 83° WNW 22:27:07 10° N
STARLINK-1246 3.6 22:17:29 10° WSW 22:21:34 59° S 22:25:40 10° E
KORONAS-FOTON 3.8 22:20:08 20° SSW 22:22:43 77° WNW 22:26:35 10° N
DELTA 2 DEB (DPAF) 4.2 22:18:51 12° SSE 22:22:59 80° ENE 22:27:28 10° NNW
CZ-4C R/B 4.0 22:19:33 10° SSE 22:23:43 59° ENE 22:28:03 10° N
STARLINK-1232 3.7 22:20:02 10° W 22:24:05 55° S 22:28:09 10° ESE
Nadezhda 2 Rocket 4.5 22:19:49 16° S 22:24:49 83° E 22:30:59 10° NNE
ATLAS 5 CENTAUR R/B 0.5 22:23:07 16° SW 22:25:03 76° SSE 22:27:04 10° ENE
STARLINK-1228 3.8 22:23:29 10° W 22:26:26 29° SSW 22:29:23 10° SE
STARLINK-1224 3.6 22:22:27 10° WSW 22:26:32 59° S 22:30:38 10° E
STARLINK-1208 3.7 22:25:00 10° W 22:29:02 54° SSW 22:33:05 10° ESE
STARLINK-1234 3.8 22:26:29 10° W 22:29:13 28° SSW 22:31:57 10° SE
GEOS 3 Rocket 4.3 22:26:35 14° S 22:30:33 36° SW 22:35:27 10° WNW
STARLINK-1212 3.6 22:27:49 10° W 22:30:38 31° SSW 22:33:26 10° SE
STARLINK-1105 3.6 22:28:18 10° W 22:31:06 31° SSW 22:33:53 10° SE
STARLINK-1209 3.8 22:28:24 10° W 22:31:08 27° SSW 22:33:51 10° SE
STARLINK-1225 3.6 22:27:25 10° WSW 22:31:31 60° S 22:35:37 10° E
STARLINK-1247 3.6 22:29:12 10° W 22:32:01 31° SSW 22:34:50 10° SE
STARLINK-1227 3.6 22:29:40 10° W 22:32:28 30° SSW 22:35:14 10° SE
Cosmos 2058 Rocket 3.1 22:28:38 10° NNW 22:33:01 66° W 22:36:30 16° S
COSMOS 2455 3.2 22:28:33 16° SSW 22:33:15 56° ESE 22:39:09 10° NE
STARLINK-1226 3.6 22:30:32 10° W 22:33:20 30° SSW 22:36:07 10° SE
STARLINK-1271 3.7 22:29:58 10° W 22:34:01 52° SSW 22:38:03 10° ESE
STARLINK-1215 3.6 22:31:27 10° W 22:34:16 30° SSW 22:37:04 10° SE
Cosmos 1726 4.2 22:31:57 10° NW 22:34:19 16° W 22:36:25 11° WSW
Lacrosse 4 Rocket 3.5 22:30:31 10° NNW 22:34:31 32° NNE 22:38:25 10° E
Cosmos 2263 4.5 22:30:29 12° SW 22:35:47 67° NW 22:41:25 10° NNE
BREEZE-M DEB (TANK) 2.8 22:31:27 10° WSW 22:35:50 29° SSW 22:38:02 10° SE
Cosmos 2228 3.9 22:31:58 10° NNW 22:35:53 36° W 22:38:43 16° SSW
STARLINK-1217 3.6 22:33:14 10° W 22:36:02 30° SSW 22:38:48 10° SE
STARLINK-1230 3.6 22:32:23 10° WSW 22:36:28 60° S 22:40:34 10° E
STARLINK-1229 3.7 22:34:09 10° W 22:36:56 29° SSW 22:39:43 10° SE
SJ 16-02 2.4 22:33:10 10° NNW 22:37:28 46° ENE 22:41:45 10° SE
Meteor 1-29 3.0 22:34:07 10° NNE 22:37:32 74° WNW 22:39:53 19° SSW
STARLINK-1270 3.7 22:35:01 10° W 22:37:48 29° SSW 22:40:35 10° SE
STARLINK-1154 3.7 22:34:58 10° W 22:38:59 51° SSW 22:43:00 10° ESE
STARLINK-1189 3.7 22:36:52 10° W 22:39:38 29° SSW 22:42:23 10° SE
IRAS Rocket 4.5 22:35:38 14° S 22:40:21 56° WSW 22:45:50 10° NNW
STARLINK-1188 3.7 22:37:44 10° W 22:40:30 29° SSW 22:43:15 10° SE
STARLINK-1235 3.9 22:38:29 10° W 22:41:07 25° SSW 22:43:44 10° SSE
STARLINK-1243 3.6 22:37:21 10° WSW 22:41:27 61° S 22:45:33 10° E
STARLINK-1187 3.8 22:38:53 10° W 22:41:34 26° SSW 22:44:14 10° SE
STARLINK-1191 3.7 22:40:14 10° W 22:42:57 28° SSW 22:45:40 10° SE
STARLINK-1221 3.7 22:41:07 10° W 22:43:49 27° SSW 22:46:32 10° SE
STARLINK-1197 3.8 22:39:55 10° W 22:43:56 50° SSW 22:47:57 10° ESE
STARLINK-1222 3.8 22:42:00 10° W 22:44:42 27° SSW 22:47:24 10° SE
STARLINK-1214 3.8 22:42:55 10° W 22:45:37 27° SSW 22:48:18 10° SE
Cosmos 1174 3.9 22:43:31 18° SSW 22:45:39 47° SE 22:49:22 10° NE
SL-14 R/B 3.2 22:43:13 16° S 22:46:12 81° E 22:50:04 10° NNE
STARLINK-1236 3.6 22:42:19 10° WSW 22:46:25 61° S 22:50:31 10° E
Cosmos 1300 2.8 22:43:23 10° NNW 22:47:10 59° W 22:50:08 16° S
Okean 1-7 Rocket 3.6 22:44:37 16° SSW 22:48:12 85° WNW 22:52:45 10° N
Starlink 7 placeholder 4.2 22:49:12 12° SE 22:49:12 12° SE 22:49:44 10° ESE
STARLINK-1198 3.8 22:44:52 10° W 22:48:53 48° SSW 22:52:53 10° ESE
Cosmos 2219 3.2 22:43:33 10° NW 22:49:17 89° WSW 22:54:57 10° SSE
Cosmos 921 Rocket 3.6 22:46:47 14° S 22:50:14 46° ESE 22:54:24 10° NNE
COSMOS 2487 4.3 22:50:04 10° WNW 22:52:22 17° W 22:53:49 14° SW
STARLINK-1199 3.8 22:49:53 10° W 22:53:53 47° SSW 22:57:52 10° ESE
Nadezhda 1 Rocket 4.0 22:48:37 10° NNW 22:54:47 83° W 23:01:00 10° S
STARLINK-1269 3.6 22:52:14 10° W 22:56:20 61° S 23:00:26 10° E
Cosmos 1626 Rocket 4.0 22:52:29 12° S 22:56:23 56° E 23:00:40 10° NNE
Cosmos 1656 Rocket 4.0 22:52:30 11° SW 22:57:56 64° NW 23:03:30 10° NNE
STARLINK-1210 3.9 22:54:50 10° W 22:58:49 45° SSW 23:02:47 10° SE
STARLINK-1200 3.6 22:57:14 10° W 23:01:20 61° S 23:05:26 10° ESE
Cosmos 1626 2.2 22:59:58 16° SSW 23:02:53 66° WNW 23:06:37 10° N
STARLINK-1219 3.9 22:59:49 10° W 23:03:46 44° SSW 23:07:44 10° SE
Cosmos 2297 Rocket 2.2 22:59:21 10° NW 23:05:03 85° WSW 23:10:43 10° SSE
STARLINK-60 4.3 23:04:02 16° SSW 23:05:43 24° SSE 23:08:24 10° E
STARLINK-1192 3.6 23:02:12 10° W 23:06:18 60° S 23:10:23 10° ESE
Cosmos 2082 4.2 23:02:52 10° NNW 23:08:33 64° NE 23:14:10 10° SE
STARLINK-1211 3.9 23:04:47 10° W 23:08:43 42° SSW 23:12:39 10° SE
CZ-4B R/B 4.3 23:04:51 10° NNE 23:09:49 48° E 23:14:52 10° S
MOZ.5/SAFIR/RUBIN 5/SL-8 4.0 23:05:36 11° S 23:09:54 54° W 23:14:28 10° NNW
UNK 3.8 23:05:50 10° S 23:10:26 68° WSW 23:15:03 10° NNW
STARLINK-1244 3.6 23:07:09 10° W 23:11:15 60° S 23:15:20 10° ESE
SL-19 R/B 4.3 23:06:28 10° NNE 23:11:46 71° WNW 23:16:57 12° SSW
Cosmos 1812 Rocket 3.6 23:07:52 10° NNW 23:12:23 83° W 23:16:51 10° S
STARLINK-1245 4.0 23:09:47 10° W 23:13:41 41° SSW 23:17:36 10° SE
Cosmos 990 Rocket 4.1 23:09:19 10° NNW 23:14:37 83° ENE 23:19:53 10° SSE
STARLINK-1138 3.6 23:12:08 10° W 23:16:13 59° S 23:20:18 10° ESE
NOSS 3-4 (A) 3.5 23:10:16 10° SW 23:16:19 89° NW 23:22:58 10° NE
NOSS 3-4 (C) 3.5 23:10:21 10° SW 23:16:26 90° NW 23:23:05 10° NE
ERBS 2.5 23:13:26 10° WNW 23:16:46 71° N 23:20:07 10° E
SL-4 R/B 3.2 23:13:39 12° SW 23:17:33 34° SSE 23:21:47 10° E
SL-16 R/B 2.6 23:11:36 10° S 23:17:41 62° WSW 23:23:50 10° NNW
ERS-2 4.1 23:15:05 10° SE 23:18:19 30° ENE 23:21:34 10° N
ATLAS 3B R/B 3.5 23:12:42 10° WNW 23:18:28 31° WSW 23:24:24 10° S
STARLINK-1233 4.0 23:14:45 10° W 23:18:38 39° SSW 23:22:31 10° SE
STARLINK-1203 3.7 23:14:30 10° W 23:18:38 59° S 23:22:47 10° ESE
Cosmos 2263 Rocket 4.3 23:15:22 10° NNW 23:20:26 32° NE 23:25:27 10° E
STARLINK-1143 3.7 23:17:06 10° W 23:21:11 59° S 23:25:16 10° ESE
CENTAUR R/B 4.4 23:16:07 10° WNW 23:21:46 21° WSW 23:27:41 10° SSW
Cosmos 1437 2.7 23:20:41 14° SSW 23:23:09 63° WNW 23:26:10 10° N
STARLINK-1204 4.1 23:19:45 10° W 23:23:36 38° SSW 23:27:27 10° SE
ATLAS CENTAUR R/B 1.4 23:20:47 12° SW 23:24:52 80° SE 23:28:55 10° NE
STARLINK-1241 3.7 23:22:04 10° W 23:26:09 58° S 23:30:14 10° ESE
IRS-1D 4.4 23:23:16 10° NNE 23:28:29 49° E 23:33:37 10° S
STARLINK-1238 4.1 23:24:42 10° W 23:28:31 36° SSW 23:32:20 10° SE
Cosmos 1602 Rocket 3.5 23:24:49 10° S 23:29:07 88° E 23:33:28 10° NNE
Meteor 2-1 Rocket 4.3 23:23:53 10° NNW 23:29:19 62° W 23:34:46 10° S
Cosmos 1455 2.1 23:25:54 10° NNW 23:29:41 88° W 23:33:25 10° S
STARLINK-1239 3.7 23:27:02 10° W 23:31:07 57° S 23:35:11 10° ESE
GP-B 3.3 23:28:41 10° N 23:33:10 72° E 23:37:35 10° S
STARLINK-1201 4.2 23:29:42 10° W 23:33:30 35° SSW 23:37:17 10° SE
Cosmos 1745 Rocket 4.1 23:28:06 10° SSW 23:34:13 72° WNW 23:40:23 10° N
STARLINK-29 4.4 23:32:09 12° SSW 23:34:24 23° SSE 23:36:59 10° E
Cosmos 2181 Rocket 4.2 23:29:15 10° N 23:35:41 85° ENE 23:42:09 10° SSE
STARLINK-1240 3.7 23:32:01 10° W 23:36:05 56° S 23:40:09 10° ESE
Cosmos-2242 3.1 23:33:00 10° N 23:37:19 82° ENE 23:41:35 10° SSE
STARLINK-1206 4.3 23:34:41 10° W 23:38:27 33° SSW 23:42:11 10° SE
Cosmos 2227 Rocket 2.3 23:34:58 10° NW 23:40:34 59° WSW 23:46:08 10° SSE
Cosmos 1400 Rocket 4.0 23:36:49 10° N 23:40:49 47° ENE 23:44:49 10° SE
STARLINK-1216 3.7 23:36:59 10° W 23:41:03 55° S 23:45:06 10° ESE
CZ-2D R/B 2.2 23:38:00 10° NNE 23:43:20 80° WNW 23:48:33 10° SSW
STARLINK-1205 4.3 23:39:41 10° W 23:43:24 32° SSW 23:47:05 10° SE
SL-08 R/B 3.5 23:40:20 10° SSE 23:45:00 77° ENE 23:49:40 10° NNW
Meteor 1-24 Rocket 4.4 23:40:05 10° SW 23:45:06 41° WNW 23:50:15 10° N
ATLAS 2AS CENTAUR R/B 3.3 23:37:29 10° WSW 23:45:32 73° NNW 23:53:21 10° NE
STARLINK-1237 3.7 23:41:58 10° W 23:46:01 54° SSW 23:50:04 10° ESE
ADEOS II 2.8 23:41:11 10° NNE 23:46:21 53° E 23:51:29 10° S
Cosmos 2369 Rocket 3.9 23:42:18 10° W 23:47:09 28° NNW 23:51:58 10° NNE
RESURS DK-1 2.4 23:43:28 10° SW 23:47:37 78° NW 23:51:48 10° NE
STARLINK-1218 4.4 23:44:40 10° W 23:48:20 31° SSW 23:51:59 10° SE
Cosmos 1697 Rocket 4.1 23:43:25 10° SSE 23:48:21 32° ESE 23:53:20 10° NE
Cosmos 1763 Rocket 4.4 23:44:57 10° S 23:49:46 44° ESE 23:54:35 10° NE
STARLINK-1202 3.8 23:46:57 10° W 23:51:00 53° SSW 23:55:03 10° ESE
STARLINK-1254 4.4 23:49:40 10° W 23:53:17 29° SSW 23:56:54 10° SSE
Resurs 1-4 Rocket 2.3 23:48:02 10° NNE 23:53:18 68° WNW 23:58:33 10° SSW
